• In Netherlands
  • List of Countries
  • For 7 days
  • Water Temperature
  • Satellite Maps
  • Weather Map
  • Weather Widgets
  • user-avatar
    Login

    Hourly Weather La Esperanza

    Today, 11 December, Monday

    Time Temperature Precipitation Wind Pressure Humidity
    00:00 +7°C° 0 mm 3 mps 619 mmHg 78%
    01:00 +7°C° 0 mm 3 mps 619 mmHg 79%
    02:00 +7°C° 0 mm 3 mps 619 mmHg 80%
    03:00 +7°C° 0 mm 3 mps 618 mmHg 81%
    04:00 +7°C° 0 mm 3 mps 618 mmHg 81%
    05:00 +7°C° 0 mm 3 mps 619 mmHg 82%
    06:00 +7°C° 0 mm 3 mps 619 mmHg 83%
    07:00 +9°C° 0 mm 3 mps 619 mmHg 78%
    08:00 +10°C° 0 mm 3 mps 620 mmHg 73%
    09:00 +12°C° 0 mm 3 mps 621 mmHg 69%
    10:00 +13°C° 0 mm 3 mps 621 mmHg 66%
    11:00 +14°C° 0 mm 4 mps 621 mmHg 62%
    12:00 +15°C° 0 mm 4 mps 621 mmHg 59%
    13:00 +16°C° 0 mm 3 mps 620 mmHg 61%
    14:00 +14°C° 0 mm 3 mps 620 mmHg 62%
    15:00 +14°C° 0 mm 3 mps 619 mmHg 64%
    16:00 +12°C° 0 mm 3 mps 619 mmHg 69%
    17:00 +11°C° 0 mm 3 mps 618 mmHg 75%
    18:00 +9°C° 0 mm 3 mps 618 mmHg 80%
    19:00 +9°C° 0 mm 3 mps 618 mmHg 81%
    20:00 +8°C° 0 mm 2 mps 618 mmHg 83%
    21:00 +8°C° 0 mm 2 mps 618 mmHg 84%
    22:00 +8°C° 0 mm 2 mps 618 mmHg 84%
    23:00 +8°C° 0 mm 2 mps 618 mmHg 84%

    Tomorrow, 12 December, Tuesday

    Time Temperature Precipitation Wind Pressure Humidity
    00:00 +7°C° 0 mm 2 mps 618 mmHg 84%
    01:00 +7°C° 0 mm 2 mps 618 mmHg 84%
    02:00 +7°C° 0 mm 2 mps 617 mmHg 84%
    03:00 +7°C° 0 mm 2 mps 617 mmHg 83%
    04:00 +8°C° 0 mm 2 mps 617 mmHg 84%
    05:00 +8°C° 0 mm 2 mps 617 mmHg 84%
    06:00 +8°C° 0 mm 2 mps 618 mmHg 85%
    07:00 +9°C° 0 mm 2 mps 619 mmHg 80%
    08:00 +12°C° 0 mm 2 mps 620 mmHg 74%
    09:00 +13°C° 0 mm 2 mps 621 mmHg 69%
    10:00 +15°C° 0 mm 2 mps 621 mmHg 64%
    11:00 +17°C° 0 mm 2 mps 621 mmHg 59%
    12:00 +18°C° 0 mm 3 mps 621 mmHg 54%
    13:00 +18°C° 0 mm 3 mps 621 mmHg 56%
    14:00 +18°C° 0 mm 3 mps 620 mmHg 57%
    15:00 +18°C° 0 mm 3 mps 619 mmHg 59%
    16:00 +16°C° 0 mm 3 mps 619 mmHg 66%
    17:00 +13°C° 0 mm 3 mps 619 mmHg 73%
    18:00 +12°C° 0 mm 2 mps 618 mmHg 79%
    19:00 +12°C° 0 mm 2 mps 618 mmHg 81%
    20:00 +10°C° 0 mm 2 mps 619 mmHg 82%
    21:00 +10°C° 0 mm 2 mps 619 mmHg 83%
    22:00 +10°C° 0 mm 2 mps 619 mmHg 84%
    23:00 +9°C° 0 mm 2 mps 618 mmHg 84%

    Day after tomorrow, 13 December, Wednesday

    Time Temperature Precipitation Wind Pressure Humidity
    00:00 +9°C° 0 mm 2 mps 618 mmHg 85%
    01:00 +9°C° 0 mm 2 mps 618 mmHg 85%
    02:00 +9°C° 0 mm 2 mps 617 mmHg 86%
    03:00 +9°C° 0 mm 2 mps 617 mmHg 86%
    04:00 +9°C° 0 mm 2 mps 617 mmHg 86%
    05:00 +9°C° 0 mm 2 mps 617 mmHg 86%
    06:00 +9°C° 0 mm 2 mps 618 mmHg 86%
    07:00 +10°C° 0 mm 2 mps 619 mmHg 81%
    08:00 +11°C° 0 mm 3 mps 620 mmHg 76%
    09:00 +13°C° 0 mm 3 mps 621 mmHg 70%
    10:00 +14°C° 0 mm 3 mps 621 mmHg 66%
    11:00 +16°C° 0 mm 3 mps 621 mmHg 62%
    12:00 +17°C° 0 mm 3 mps 621 mmHg 58%
    13:00 +17°C° 0 mm 3 mps 620 mmHg 59%
    14:00 +17°C° 0 mm 3 mps 619 mmHg 59%
    15:00 +17°C° 0 mm 3 mps 619 mmHg 60%
    16:00 +14°C° 0 mm 3 mps 618 mmHg 67%
    17:00 +14°C° 0 mm 2 mps 618 mmHg 74%
    18:00 +12°C° 0 mm 2 mps 618 mmHg 82%
    19:00 +12°C° 0 mm 2 mps 618 mmHg 84%
    20:00 +10°C° 0 mm 2 mps 618 mmHg 85%
    21:00 +10°C° 0 mm 2 mps 619 mmHg 87%
    22:00 +10°C° 0 mm 2 mps 618 mmHg 88%
    23:00 +9°C° 0 mm 2 mps 618 mmHg 88%

    14 December, Thursday

    Time Temperature Precipitation Wind Pressure Humidity
    00:00 +9°C° 0 mm 2 mps 618 mmHg 88%
    01:00 +9°C° 0 mm 2 mps 617 mmHg 88%
    02:00 +9°C° 0 mm 2 mps 617 mmHg 88%
    03:00 +9°C° 0 mm 2 mps 616 mmHg 88%
    04:00 +9°C° 0 mm 2 mps 617 mmHg 89%
    05:00 +9°C° 0 mm 2 mps 617 mmHg 89%
    06:00 +10°C° 0 mm 1 mps 617 mmHg 89%
    07:00 +12°C° 0 mm 1 mps 618 mmHg 81%
    08:00 +14°C° 0 mm 1 mps 619 mmHg 74%
    09:00 +16°C° 0 mm 1 mps 620 mmHg 67%
    10:00 +19°C° 0 mm 1 mps 620 mmHg 60%
    11:00 +21°C° 0 mm 1 mps 620 mmHg 54%
    12:00 +23°C° 0 mm 1 mps 621 mmHg 48%
    13:00 +23°C° 0 mm 1 mps 620 mmHg 48%
    14:00 +23°C° 0 mm 1 mps 619 mmHg 47%
    15:00 +23°C° 0 mm 2 mps 619 mmHg 47%
    16:00 +21°C° 0 mm 1 mps 618 mmHg 56%
    17:00 +19°C° 0 mm 1 mps 618 mmHg 64%
    18:00 +15°C° 0 mm 1 mps 617 mmHg 73%
    19:00 +14°C° 0 mm 1 mps 617 mmHg 77%
    20:00 +13°C° 0 mm 1 mps 617 mmHg 81%
    21:00 +12°C° 0 mm 1 mps 618 mmHg 86%
    22:00 +12°C° 0 mm 1 mps 617 mmHg 87%
    23:00 +12°C° 0 mm 1 mps 617 mmHg 88%

    15 December, Friday

    Time Temperature Precipitation Wind Pressure Humidity
    00:00 +12°C° 0 mm 1 mps 617 mmHg 90%
    01:00 +12°C° 0 mm 1 mps 617 mmHg 90%
    02:00 +12°C° 0 mm 1 mps 617 mmHg 91%
    03:00 +12°C° 0 mm 1 mps 616 mmHg 91%
    04:00 +12°C° 0 mm 1 mps 617 mmHg 91%
    05:00 +12°C° 0 mm 1 mps 617 mmHg 90%
    06:00 +12°C° 0 mm 1 mps 617 mmHg 90%
    07:00 +14°C° 0 mm 1 mps 619 mmHg 83%
    08:00 +15°C° 0 mm 2 mps 620 mmHg 76%
    09:00 +17°C° 0 mm 2 mps 621 mmHg 68%
    10:00 +18°C° 0 mm 2 mps 621 mmHg 64%
    11:00 +20°C° 0 mm 2 mps 621 mmHg 61%
    12:00 +21°C° 0 mm 2 mps 621 mmHg 57%
    13:00 +20°C° 0 mm 2 mps 620 mmHg 59%
    14:00 +20°C° 0 mm 3 mps 620 mmHg 61%
    15:00 +19°C° 0 mm 3 mps 619 mmHg 63%
    16:00 +18°C° 0 mm 3 mps 619 mmHg 70%
    17:00 +16°C° 0 mm 2 mps 618 mmHg 77%
    18:00 +14°C° 0 mm 2 mps 618 mmHg 84%
    19:00 +14°C° 0 mm 2 mps 619 mmHg 85%
    20:00 +14°C° 0 mm 2 mps 619 mmHg 86%
    21:00 +14°C° 0 mm 2 mps 619 mmHg 87%
    22:00 +14°C° 0 mm 2 mps 619 mmHg 87%
    23:00 +14°C° 0 mm 2 mps 619 mmHg 86%

    16 December, Saturday

    Time Temperature Precipitation Wind Pressure Humidity
    00:00 +14°C° 0 mm 2 mps 619 mmHg 86%
    01:00 +14°C° 0 mm 2 mps 618 mmHg 86%
    02:00 +13°C° 0 mm 2 mps 618 mmHg 87%
    03:00 +13°C° 0 mm 2 mps 618 mmHg 87%
    04:00 +13°C° 0.1 mm 2 mps 618 mmHg 87%
    05:00 +13°C° 0.1 mm 2 mps 618 mmHg 87%
    06:00 +14°C° 0.1 mm 2 mps 618 mmHg 87%
    07:00 +14°C° 0 mm 3 mps 619 mmHg 83%
    08:00 +16°C° 0 mm 3 mps 620 mmHg 78%
    09:00 +17°C° 0 mm 3 mps 621 mmHg 74%
    10:00 +18°C° 0.1 mm 3 mps 621 mmHg 71%
    11:00 +19°C° 0.1 mm 3 mps 620 mmHg 69%
    12:00 +19°C° 0.1 mm 3 mps 620 mmHg 67%
    13:00 +19°C° 0 mm 3 mps 620 mmHg 67%
    14:00 +19°C° 0 mm 3 mps 619 mmHg 67%
    15:00 +19°C° 0 mm 3 mps 619 mmHg 67%
    16:00 +18°C° 0 mm 2 mps 618 mmHg 73%
    17:00 +17°C° 0 mm 2 mps 618 mmHg 79%
    18:00 +15°C° 0 mm 2 mps 618 mmHg 85%
    19:00 +15°C° 0 mm 2 mps 618 mmHg 87%
    20:00 +14°C° 0 mm 2 mps 618 mmHg 88%
    21:00 +14°C° 0 mm 2 mps 618 mmHg 90%
    22:00 +14°C° 0 mm 2 mps 618 mmHg 90%
    23:00 +14°C° 0 mm 2 mps 618 mmHg 90%
    Show more